Time,TemperatureF,DewpointF,PressureIn,WindDirection,WindDirectionDegrees,WindSpeedMPH,WindSpeedGustMPH,Humidity,HourlyPrecipIn,Conditions,Clouds,dailyrainin,SoftwareType,DateUTC
2013-06-07 00:02:00,72.0,62.1,29.89,NNE,26,0.0,6.0,71,0.00,,,0.00,meteohub,2013-06-07 05:02:00,
2013-06-07 00:07:00,71.8,61.9,29.89,NNE,14,0.0,6.0,71,0.00,,,0.00,meteohub,2013-06-07 05:07:00,
2013-06-07 00:12:00,71.6,61.7,29.90,North,5,0.0,6.0,71,0.00,,,0.00,meteohub,2013-06-07 05:12:00,
2013-06-07 00:17:00,71.4,61.9,29.90,NNE,32,0.0,6.0,72,0.00,,,0.00,meteohub,2013-06-07 05:17:00,
2013-06-07 00:22:00,71.2,61.7,29.90,North,0,0.0,6.0,72,0.00,,,0.00,meteohub,2013-06-07 05:22:00,
2013-06-07 00:27:00,71.2,61.7,29.91,NNW,340,0.0,5.0,72,0.00,,,0.00,meteohub,2013-06-07 05:27:00,
2013-06-07 00:32:00,71.2,61.7,29.91,NNW,347,0.0,5.0,72,0.00,,,0.00,meteohub,2013-06-07 05:32:00,
2013-06-07 00:37:00,71.2,61.7,29.91,NNW,344,0.0,8.0,72,0.00,,,0.00,meteohub,2013-06-07 05:37:00,
2013-06-07 00:42:00,71.1,61.5,29.91,NNE,33,0.0,8.0,72,0.00,,,0.00,meteohub,2013-06-07 05:42:00,
2013-06-07 00:47:00,71.1,61.9,29.91,NNE,29,0.0,7.0,73,0.00,,,0.00,meteohub,2013-06-07 05:47:00,
2013-06-07 00:52:00,70.9,61.9,29.91,North,11,0.0,0.0,73,0.00,,,0.00,meteohub,2013-06-07 05:52:00,
2013-06-07 00:57:00,70.5,61.9,29.91,NNE,20,0.0,0.0,74,0.00,,,0.00,meteohub,2013-06-07 05:57:00,
2013-06-07 01:03:00,70.5,61.9,29.92,NNE,27,0.0,0.0,74,0.00,,,0.00,meteohub,2013-06-07 06:03:00,
2013-06-07 01:08:00,70.3,61.7,29.92,NNE,17,0.0,0.0,74,0.00,,,0.00,meteohub,2013-06-07 06:08:00,
2013-06-07 01:13:00,70.3,61.7,29.91,NE,52,0.0,4.0,74,0.00,,,0.00,meteohub,2013-06-07 06:13:00,
2013-06-07 01:18:00,70.2,61.5,29.91,NNE,31,0.0,4.0,74,0.00,,,0.00,meteohub,2013-06-07 06:18:00,
2013-06-07 01:23:00,70.2,61.5,29.92,North,349,0.0,0.0,74,0.00,,,0.00,meteohub,2013-06-07 06:23:00,
2013-06-07 01:28:00,70.2,61.5,29.91,NE,35,0.0,0.0,74,0.00,,,0.00,meteohub,2013-06-07 06:28:00,
2013-06-07 01:33:00,70.2,61.5,29.92,North,9,0.0,5.0,74,0.00,,,0.00,meteohub,2013-06-07 06:33:00,
2013-06-07 01:38:00,70.2,61.5,29.92,North,5,0.0,5.0,74,0.00,,,0.00,meteohub,2013-06-07 06:38:00,
2013-06-07 01:43:00,70.0,61.3,29.92,NNE,30,0.0,5.0,74,0.00,,,0.00,meteohub,2013-06-07 06:43:00,
2013-06-07 01:48:00,70.0,61.3,29.92,NE,50,1.0,5.0,74,0.00,,,0.00,meteohub,2013-06-07 06:48:00,
2013-06-07 01:53:00,70.0,61.3,29.92,NNE,30,0.0,4.0,74,0.00,,,0.00,meteohub,2013-06-07 06:53:00,
2013-06-07 01:58:00,70.0,61.3,29.93,NE,38,0.0,4.0,74,0.00,,,0.00,meteohub,2013-06-07 06:58:00,
2013-06-07 02:03:00,70.0,61.3,29.93,NNE,26,0.0,4.0,74,0.00,,,0.00,meteohub,2013-06-07 07:03:00,
2013-06-07 02:08:00,70.2,61.5,29.93,NE,48,0.0,4.0,74,0.00,,,0.00,meteohub,2013-06-07 07:08:00,
2013-06-07 02:13:00,70.2,61.5,29.93,NE,37,0.0,4.0,74,0.00,,,0.00,meteohub,2013-06-07 07:13:00,
2013-06-07 02:18:00,70.2,61.5,29.92,NNE,27,0.0,4.0,74,0.00,,,0.00,meteohub,2013-06-07 07:18:00,
2013-06-07 02:23:00,70.2,61.5,29.92,East,79,0.0,4.0,74,0.00,,,0.00,meteohub,2013-06-07 07:23:00,
2013-06-07 02:28:00,70.2,61.5,29.93,East,94,0.0,4.0,74,0.00,,,0.00,meteohub,2013-06-07 07:28:00,
2013-06-07 02:33:00,70.2,61.5,29.93,East,88,0.0,0.0,74,0.00,,,0.00,meteohub,2013-06-07 07:33:00,
2013-06-07 02:38:00,70.2,61.5,29.93,East,85,0.0,0.0,74,0.00,,,0.00,meteohub,2013-06-07 07:38:00,
2013-06-07 02:43:00,70.3,61.7,29.93,ENE,74,0.0,0.0,74,0.00,,,0.00,meteohub,2013-06-07 07:43:00,
2013-06-07 02:48:00,70.3,61.7,29.93,NE,44,0.0,0.0,74,0.00,,,0.00,meteohub,2013-06-07 07:48:00,
2013-06-07 02:53:00,70.3,61.7,29.93,NE,44,0.0,0.0,74,0.00,,,0.00,meteohub,2013-06-07 07:53:00,
2013-06-07 02:58:00,70.3,62.1,29.93,ENE,59,0.0,0.0,75,0.00,,,0.00,meteohub,2013-06-07 07:58:00,
2013-06-07 03:03:00,70.3,62.1,29.93,ENE,59,0.0,0.0,75,0.00,,,0.00,meteohub,2013-06-07 08:03:00,
2013-06-07 03:08:00,70.2,61.9,29.93,ENE,61,0.0,0.0,75,0.00,,,0.00,meteohub,2013-06-07 08:08:00,
2013-06-07 03:13:00,70.2,61.9,29.93,ENE,65,0.0,0.0,75,0.00,,,0.00,meteohub,2013-06-07 08:13:00,
2013-06-07 03:18:00,70.2,61.9,29.93,ENE,65,0.0,0.0,75,0.00,,,0.00,meteohub,2013-06-07 08:18:00,
2013-06-07 03:23:00,70.0,62.1,29.93,ENE,65,0.0,0.0,76,0.00,,,0.00,meteohub,2013-06-07 08:23:00,
2013-06-07 03:28:00,69.8,61.9,29.93,ENE,65,0.0,0.0,76,0.00,,,0.00,meteohub,2013-06-07 08:28:00,
2013-06-07 03:33:00,69.6,61.7,29.93,ENE,65,0.0,0.0,76,0.00,,,0.00,meteohub,2013-06-07 08:33:00,
2013-06-07 03:38:00,69.6,62.1,29.93,ENE,65,0.0,0.0,77,0.00,,,0.00,meteohub,2013-06-07 08:38:00,
2013-06-07 03:43:00,69.4,61.9,29.93,ENE,65,0.0,0.0,77,0.00,,,0.00,meteohub,2013-06-07 08:43:00,
2013-06-07 03:48:00,69.4,61.9,29.93,ENE,65,0.0,0.0,77,0.00,,,0.00,meteohub,2013-06-07 08:48:00,
2013-06-07 03:53:00,69.3,61.7,29.93,ENE,61,0.0,0.0,77,0.00,,,0.00,meteohub,2013-06-07 08:53:00,
2013-06-07 03:58:00,69.3,62.1,29.92,ENE,57,0.0,0.0,78,0.00,,,0.00,meteohub,2013-06-07 08:58:00,
2013-06-07 04:03:00,69.1,61.5,29.93,NE,54,0.0,0.0,77,0.00,,,0.00,meteohub,2013-06-07 09:03:00,
2013-06-07 04:08:00,69.1,61.9,29.93,NE,48,0.0,0.0,78,0.00,,,0.00,meteohub,2013-06-07 09:08:00,
2013-06-07 04:13:00,69.1,61.9,29.93,NE,37,0.0,0.0,78,0.00,,,0.00,meteohub,2013-06-07 09:13:00,
2013-06-07 04:18:00,68.9,61.7,29.93,NE,36,0.0,0.0,78,0.00,,,0.00,meteohub,2013-06-07 09:18:00,
2013-06-07 04:23:00,69.1,61.9,29.93,NNE,21,0.0,0.0,78,0.00,,,0.00,meteohub,2013-06-07 09:23:00,
2013-06-07 04:28:00,69.3,62.1,29.92,ENE,61,0.0,0.0,78,0.00,,,0.00,meteohub,2013-06-07 09:28:00,
2013-06-07 04:33:00,69.3,62.4,29.94,ENE,73,0.0,2.0,79,0.00,,,0.00,meteohub,2013-06-07 09:33:00,
2013-06-07 04:38:00,69.3,63.1,29.92,ENE,62,0.0,2.0,81,0.02,,,0.00,meteohub,2013-06-07 09:38:00,
2013-06-07 04:43:00,68.5,63.1,29.92,ENE,59,0.0,2.0,83,0.07,,,0.07,meteohub,2013-06-07 09:43:00,
2013-06-07 04:48:00,67.8,63.1,29.92,NE,52,0.0,2.0,85,0.07,,,0.07,meteohub,2013-06-07 09:48:00,
2013-06-07 04:53:00,67.1,62.8,29.92,NNE,15,2.0,2.0,86,0.07,,,0.13,meteohub,2013-06-07 09:53:00,
2013-06-07 04:58:00,66.7,63.1,29.92,NE,38,0.0,9.0,88,0.13,,,0.13,meteohub,2013-06-07 09:58:00,
2013-06-07 05:03:00,66.6,63.1,29.92,ENE,57,0.0,9.0,89,0.13,,,0.13,meteohub,2013-06-07 10:03:00,
2013-06-07 05:08:00,66.4,63.3,29.92,ENE,58,0.0,9.0,90,0.13,,,0.13,meteohub,2013-06-07 10:08:00,
2013-06-07 05:13:00,66.4,63.3,29.91,NE,41,0.0,9.0,90,0.13,,,0.13,meteohub,2013-06-07 10:13:00,
2013-06-07 05:18:00,66.4,63.3,29.91,NE,55,0.0,5.0,90,0.13,,,0.13,meteohub,2013-06-07 10:18:00,
2013-06-07 05:23:00,66.4,63.7,29.91,NE,48,0.0,5.0,91,0.13,,,0.13,meteohub,2013-06-07 10:23:00,
2013-06-07 05:28:00,66.6,63.9,29.92,NE,48,3.0,5.0,91,0.13,,,0.13,meteohub,2013-06-07 10:28:00,
2013-06-07 05:33:00,66.6,63.9,29.91,East,79,0.0,5.0,91,0.13,,,0.13,meteohub,2013-06-07 10:33:00,
2013-06-07 05:38:00,66.7,64.0,29.91,NNE,32,0.0,5.0,91,0.13,,,0.13,meteohub,2013-06-07 10:38:00,
2013-06-07 05:44:00,66.7,64.0,29.92,NE,44,0.0,5.0,91,0.13,,,0.13,meteohub,2013-06-07 10:44:00,
2013-06-07 05:49:00,66.7,64.0,29.92,NE,40,0.0,5.0,91,0.01,,,0.13,meteohub,2013-06-07 10:49:00,
2013-06-07 05:54:00,66.7,64.0,29.92,NNW,333,0.0,5.0,91,0.00,,,0.13,meteohub,2013-06-07 10:54:00,
2013-06-07 05:59:00,66.7,64.0,29.92,North,0,0.0,5.0,91,0.00,,,0.13,meteohub,2013-06-07 10:59:00,
2013-06-07 06:04:00,66.9,64.2,29.93,North,349,0.0,5.0,91,0.00,,,0.13,meteohub,2013-06-07 11:04:00,
2013-06-07 06:09:00,66.9,64.2,29.93,NNW,336,0.0,0.0,91,0.00,,,0.13,meteohub,2013-06-07 11:09:00,
2013-06-07 06:14:00,67.3,64.6,29.94,NNW,336,0.0,0.0,91,0.00,,,0.13,meteohub,2013-06-07 11:14:00,
2013-06-07 06:19:00,67.3,64.2,29.93,NNW,335,0.0,0.0,90,0.00,,,0.13,meteohub,2013-06-07 11:19:00,
2013-06-07 06:24:00,67.3,64.2,29.93,NNW,335,0.0,0.0,90,0.00,,,0.13,meteohub,2013-06-07 11:24:00,
2013-06-07 06:29:00,67.3,64.2,29.93,NNW,336,0.0,0.0,90,0.00,,,0.13,meteohub,2013-06-07 11:29:00,
2013-06-07 06:34:00,67.3,64.2,29.93,NNW,336,0.0,0.0,90,0.00,,,0.13,meteohub,2013-06-07 11:34:00,
2013-06-07 06:39:00,67.1,64.0,29.93,NNW,336,0.0,0.0,90,0.00,,,0.13,meteohub,2013-06-07 11:39:00,
2013-06-07 06:44:00,67.1,64.0,29.93,NNW,336,0.0,0.0,90,0.00,,,0.13,meteohub,2013-06-07 11:44:00,
2013-06-07 06:49:00,67.1,64.0,29.93,NNW,344,0.0,0.0,90,0.00,,,0.13,meteohub,2013-06-07 11:49:00,
2013-06-07 06:54:00,67.1,64.0,29.93,NNW,345,0.0,0.0,90,0.00,,,0.13,meteohub,2013-06-07 11:54:00,
2013-06-07 06:59:00,67.1,64.4,29.94,NNW,345,0.0,0.0,91,0.00,,,0.13,meteohub,2013-06-07 11:59:00,
2013-06-07 07:04:00,67.3,64.2,29.94,NNW,345,0.0,0.0,90,0.00,,,0.13,meteohub,2013-06-07 12:04:00,
2013-06-07 07:09:00,67.3,64.6,29.94,NNW,345,0.0,0.0,91,0.00,,,0.13,meteohub,2013-06-07 12:09:00,
2013-06-07 07:14:00,67.3,64.6,29.94,NNW,345,0.0,0.0,91,0.00,,,0.13,meteohub,2013-06-07 12:14:00,
2013-06-07 07:19:00,67.3,64.6,29.93,NNW,345,0.0,0.0,91,0.00,,,0.13,meteohub,2013-06-07 12:19:00,
2013-06-07 07:24:00,67.3,64.6,29.93,NNW,345,0.0,0.0,91,0.00,,,0.13,meteohub,2013-06-07 12:24:00,
2013-06-07 07:29:00,67.3,64.2,29.94,NNE,30,0.0,0.0,90,0.00,,,0.13,meteohub,2013-06-07 12:29:00,
2013-06-07 07:34:00,67.3,64.6,29.94,NNE,30,0.0,0.0,91,0.00,,,0.13,meteohub,2013-06-07 12:34:00,
2013-06-07 07:39:00,67.5,64.8,29.94,NNE,30,0.0,5.0,91,0.00,,,0.13,meteohub,2013-06-07 12:39:00,
2013-06-07 07:44:00,67.5,64.4,29.94,NE,46,0.0,5.0,90,0.00,,,0.13,meteohub,2013-06-07 12:44:00,
2013-06-07 07:49:00,67.3,64.2,29.94,NE,38,0.0,5.0,90,0.00,,,0.13,meteohub,2013-06-07 12:49:00,
2013-06-07 07:54:00,67.5,64.4,29.94,NE,46,0.0,6.0,90,0.00,,,0.13,meteohub,2013-06-07 12:54:00,
2013-06-07 07:59:00,67.5,64.4,29.94,ENE,77,0.0,6.0,90,0.00,,,0.13,meteohub,2013-06-07 12:59:00,
2013-06-07 08:04:00,67.6,64.6,29.94,East,99,0.0,6.0,90,0.00,,,0.13,meteohub,2013-06-07 13:04:00,
2013-06-07 08:09:00,67.6,64.6,29.94,East,90,0.0,4.0,90,0.00,,,0.13,meteohub,2013-06-07 13:09:00,
2013-06-07 08:14:00,67.8,64.8,29.94,East,86,0.0,0.0,90,0.00,,,0.13,meteohub,2013-06-07 13:14:00,
2013-06-07 08:19:00,67.8,64.4,29.95,East,85,0.0,0.0,89,0.00,,,0.13,meteohub,2013-06-07 13:19:00,
2013-06-07 08:24:00,68.0,64.6,29.95,East,86,0.0,0.0,89,0.00,,,0.13,meteohub,2013-06-07 13:24:00,
2013-06-07 08:29:00,68.2,64.8,29.95,East,86,0.0,0.0,89,0.00,,,0.13,meteohub,2013-06-07 13:29:00,
2013-06-07 08:34:00,68.4,64.9,29.96,East,86,0.0,0.0,89,0.00,,,0.13,meteohub,2013-06-07 13:34:00,
2013-06-07 08:39:00,68.5,64.8,29.96,East,87,0.0,0.0,88,0.00,,,0.13,meteohub,2013-06-07 13:39:00,
2013-06-07 08:44:00,68.7,64.9,29.96,SE,135,0.0,0.0,88,0.00,,,0.13,meteohub,2013-06-07 13:44:00,
2013-06-07 08:49:00,69.1,65.3,29.97,SSE,151,1.0,0.0,88,0.00,,,0.13,meteohub,2013-06-07 13:49:00,
2013-06-07 08:54:00,69.3,65.3,29.98,South,182,0.0,6.0,87,0.00,,,0.13,meteohub,2013-06-07 13:54:00,
2013-06-07 08:59:00,69.4,65.5,29.98,South,182,0.0,6.0,87,0.00,,,0.13,meteohub,2013-06-07 13:59:00,
2013-06-07 09:04:00,69.4,65.5,29.98,South,178,0.0,6.0,87,0.00,,,0.13,meteohub,2013-06-07 14:04:00,
2013-06-07 09:09:00,69.6,65.3,29.98,SSE,163,0.0,4.0,86,0.00,,,0.13,meteohub,2013-06-07 14:09:00,
2013-06-07 09:14:00,69.8,65.1,29.99,SSE,161,0.0,0.0,85,0.00,,,0.13,meteohub,2013-06-07 14:14:00,
2013-06-07 09:19:00,70.0,65.7,29.98,SSE,160,0.0,0.0,86,0.00,,,0.13,meteohub,2013-06-07 14:19:00,
2013-06-07 09:25:00,70.2,65.5,29.98,SSE,150,0.0,0.0,85,0.00,,,0.13,meteohub,2013-06-07 14:25:00,
2013-06-07 09:30:00,70.2,65.1,29.98,SSE,148,6.0,6.0,84,0.00,,,0.13,meteohub,2013-06-07 14:30:00,
2013-06-07 09:35:00,70.3,65.3,29.98,SE,145,0.0,8.0,84,0.00,,,0.13,meteohub,2013-06-07 14:35:00,
2013-06-07 09:40:00,70.3,65.3,29.98,SSE,157,0.0,8.0,84,0.00,,,0.13,meteohub,2013-06-07 14:40:00,
2013-06-07 09:45:00,70.3,64.9,29.98,SE,146,2.0,9.0,83,0.00,,,0.13,meteohub,2013-06-07 14:45:00,
2013-06-07 09:50:00,70.5,65.1,29.98,ESE,120,0.0,9.0,83,0.00,,,0.13,meteohub,2013-06-07 14:50:00,
2013-06-07 09:55:00,70.5,65.1,29.98,ESE,119,0.0,8.0,83,0.00,,,0.13,meteohub,2013-06-07 14:55:00,
2013-06-07 10:00:00,70.5,64.8,29.97,ESE,119,0.0,8.0,82,0.00,,,0.13,meteohub,2013-06-07 15:00:00,
2013-06-07 10:05:00,70.7,64.9,29.97,SSE,150,0.0,8.0,82,0.00,,,0.13,meteohub,2013-06-07 15:05:00,
2013-06-07 10:10:00,70.9,64.8,29.97,ESE,119,0.0,7.0,81,0.00,,,0.13,meteohub,2013-06-07 15:10:00,
2013-06-07 10:15:00,71.1,64.9,29.97,SE,145,0.0,7.0,81,0.00,,,0.13,meteohub,2013-06-07 15:15:00,
2013-06-07 10:20:00,71.1,64.9,29.97,SE,145,0.0,7.0,81,0.00,,,0.13,meteohub,2013-06-07 15:20:00,
2013-06-07 10:25:00,71.2,65.1,29.97,SE,145,0.0,8.0,81,0.00,,,0.13,meteohub,2013-06-07 15:25:00,
2013-06-07 10:30:00,71.2,64.8,29.97,SE,144,0.0,8.0,80,0.00,,,0.13,meteohub,2013-06-07 15:30:00,
2013-06-07 10:35:00,71.4,64.9,29.97,SE,144,0.0,2.0,80,0.00,,,0.13,meteohub,2013-06-07 15:35:00,
2013-06-07 10:40:00,71.8,65.3,29.97,SE,144,0.0,2.0,80,0.00,,,0.13,meteohub,2013-06-07 15:40:00,
2013-06-07 10:45:00,72.0,65.1,29.97,SE,144,0.0,0.0,79,0.00,,,0.13,meteohub,2013-06-07 15:45:00,
2013-06-07 10:50:00,72.0,65.1,29.96,SE,144,0.0,0.0,79,0.00,,,0.13,meteohub,2013-06-07 15:50:00,
2013-06-07 10:55:00,72.1,64.9,29.96,SE,144,0.0,0.0,78,0.00,,,0.13,meteohub,2013-06-07 15:55:00,
2013-06-07 11:00:00,72.5,64.9,29.96,SE,141,0.0,0.0,77,0.00,,,0.13,meteohub,2013-06-07 16:00:00,
2013-06-07 11:05:00,72.5,64.6,29.96,NE,45,0.0,0.0,76,0.00,,,0.13,meteohub,2013-06-07 16:05:00,
2013-06-07 11:10:00,72.3,64.8,29.96,NE,51,0.0,4.0,77,0.00,,,0.13,meteohub,2013-06-07 16:10:00,
2013-06-07 11:15:00,72.3,64.8,29.96,NE,40,0.0,4.0,77,0.00,,,0.13,meteohub,2013-06-07 16:15:00,
2013-06-07 11:20:00,72.9,64.8,29.96,NE,53,0.0,4.0,76,0.00,,,0.13,meteohub,2013-06-07 16:20:00,
2013-06-07 11:25:00,73.0,64.6,29.96,NE,54,0.0,2.0,75,0.00,,,0.13,meteohub,2013-06-07 16:25:00,
2013-06-07 11:30:00,73.4,64.6,29.96,East,95,0.0,2.0,74,0.00,,,0.13,meteohub,2013-06-07 16:30:00,
2013-06-07 11:35:00,73.8,63.3,29.96,East,95,0.0,2.0,70,0.00,,,0.13,meteohub,2013-06-07 16:35:00,
2013-06-07 11:40:00,73.9,62.2,29.96,ENE,58,0.0,2.0,67,0.00,,,0.13,meteohub,2013-06-07 16:40:00,
2013-06-07 11:45:00,74.3,62.6,29.96,ESE,122,1.0,3.0,67,0.00,,,0.13,meteohub,2013-06-07 16:45:00,
2013-06-07 11:50:00,74.7,61.7,29.96,East,82,1.0,3.0,64,0.00,,,0.13,meteohub,2013-06-07 16:50:00,
2013-06-07 11:55:00,74.7,61.7,29.96,SSE,166,0.0,8.0,64,0.00,,,0.13,meteohub,2013-06-07 16:55:00,
2013-06-07 12:00:00,75.4,60.4,29.96,SE,138,0.0,8.0,60,0.00,,,0.13,meteohub,2013-06-07 17:00:00,
2013-06-07 12:06:00,75.7,61.9,29.95,ESE,111,0.0,8.0,62,0.00,,,0.13,meteohub,2013-06-07 17:06:00,
2013-06-07 12:11:00,76.3,61.0,29.94,SE,144,1.0,8.0,59,0.00,,,0.13,meteohub,2013-06-07 17:11:00,
2013-06-07 12:16:00,76.5,61.5,29.94,SSE,147,0.0,7.0,60,0.00,,,0.13,meteohub,2013-06-07 17:16:00,
2013-06-07 12:21:00,76.3,59.9,29.94,SE,127,6.0,8.0,57,0.00,,,0.13,meteohub,2013-06-07 17:21:00,
2013-06-07 12:26:00,76.3,60.4,29.94,SE,134,4.0,8.0,58,0.00,,,0.13,meteohub,2013-06-07 17:26:00,
2013-06-07 12:31:00,76.5,59.5,29.94,ESE,110,6.0,8.0,56,0.00,,,0.13,meteohub,2013-06-07 17:31:00,
2013-06-07 12:36:00,76.5,60.6,29.93,SE,134,0.0,8.0,58,0.00,,,0.13,meteohub,2013-06-07 17:36:00,
2013-06-07 12:41:00,76.6,59.7,29.93,ENE,63,0.0,9.0,56,0.00,,,0.13,meteohub,2013-06-07 17:41:00,
2013-06-07 12:46:00,76.8,59.9,29.93,SSE,155,0.0,9.0,56,0.00,,,0.13,meteohub,2013-06-07 17:46:00,
2013-06-07 12:51:00,77.4,60.4,29.93,East,96,0.0,9.0,56,0.00,,,0.13,meteohub,2013-06-07 17:51:00,
2013-06-07 12:56:00,77.7,59.7,29.93,SSE,160,0.0,7.0,54,0.00,,,0.13,meteohub,2013-06-07 17:56:00,
2013-06-07 13:02:00,78.1,60.1,29.92,ESE,122,0.0,8.0,54,0.00,,,0.13,meteohub,2013-06-07 18:02:00,
2013-06-07 13:07:00,78.3,60.3,29.92,ESE,113,0.0,8.0,54,0.00,,,0.13,meteohub,2013-06-07 18:07:00,
2013-06-07 13:12:00,78.4,60.4,29.92,SSE,155,0.0,13.0,54,0.00,,,0.13,meteohub,2013-06-07 18:12:00,
2013-06-07 13:17:00,78.8,60.3,29.92,SE,135,1.0,13.0,53,0.00,,,0.13,meteohub,2013-06-07 18:17:00,
2013-06-07 13:22:00,79.2,60.6,29.92,South,180,0.0,13.0,53,0.00,,,0.13,meteohub,2013-06-07 18:22:00,
2013-06-07 13:27:00,79.3,60.8,29.92,SSE,167,4.0,13.0,53,0.00,,,0.13,meteohub,2013-06-07 18:27:00,
2013-06-07 13:35:00,79.5,60.8,29.93,ESE,117,5.0,11.0,53,0.00,,,0.13,meteohub,2013-06-07 18:35:00,
2013-06-07 13:42:00,80.1,60.3,29.92,SSE,168,2.0,12.0,51,0.00,,,0.13,meteohub,2013-06-07 18:42:00,
2013-06-07 13:47:00,80.2,59.9,29.92,ESE,118,1.0,12.0,50,0.00,,,0.13,meteohub,2013-06-07 18:47:00,
2013-06-07 13:52:00,80.4,60.6,29.92,SSW,192,2.0,12.0,51,0.00,,,0.13,meteohub,2013-06-07 18:52:00,
2013-06-07 13:57:00,80.4,60.1,29.92,ESE,117,9.0,12.0,50,0.00,,,0.13,meteohub,2013-06-07 18:57:00,
2013-06-07 14:02:00,80.8,60.4,29.93,SSW,212,7.0,15.0,50,0.00,,,0.13,meteohub,2013-06-07 19:02:00,
2013-06-07 14:07:00,80.8,59.2,29.92,South,180,4.0,15.0,48,0.00,,,0.13,meteohub,2013-06-07 19:07:00,
2013-06-07 14:12:00,80.8,59.9,29.92,SE,139,0.0,14.0,49,0.00,,,0.13,meteohub,2013-06-07 19:12:00,
2013-06-07 14:17:00,81.0,60.1,29.92,SSE,155,2.0,14.0,49,0.00,,,0.13,meteohub,2013-06-07 19:17:00,
2013-06-07 14:25:00,81.0,59.4,29.92,SSW,193,0.0,14.0,48,0.00,,,0.13,meteohub,2013-06-07 19:25:00,
2013-06-07 14:32:00,81.0,59.4,29.92,SSE,156,8.0,12.0,48,0.00,,,0.13,meteohub,2013-06-07 19:32:00,
2013-06-07 14:37:00,80.4,59.5,29.92,SSE,147,1.0,12.0,49,0.00,,,0.13,meteohub,2013-06-07 19:37:00,
2013-06-07 14:42:00,80.4,59.5,29.92,SSE,160,10.0,13.0,49,0.00,,,0.13,meteohub,2013-06-07 19:42:00,
2013-06-07 14:47:00,80.2,58.8,29.92,SE,137,8.0,13.0,48,0.00,,,0.13,meteohub,2013-06-07 19:47:00,
2013-06-07 14:55:00,80.2,58.1,29.92,SE,129,0.0,13.0,47,0.00,,,0.13,meteohub,2013-06-07 19:55:00,
2013-06-07 15:01:00,80.8,58.1,29.92,ESE,113,6.0,14.0,46,0.00,,,0.13,meteohub,2013-06-07 20:01:00,
2013-06-07 15:07:00,81.0,58.3,29.91,NE,49,4.0,14.0,46,0.00,,,0.13,meteohub,2013-06-07 20:07:00,
2013-06-07 15:12:00,81.0,58.3,29.91,SE,140,2.0,13.0,46,0.00,,,0.13,meteohub,2013-06-07 20:12:00,
2013-06-07 15:18:00,81.1,58.5,29.91,ESE,120,0.0,13.0,46,0.00,,,0.13,meteohub,2013-06-07 20:18:00,
2013-06-07 15:25:00,81.0,57.6,29.91,SE,135,0.0,15.0,45,0.00,,,0.13,meteohub,2013-06-07 20:25:00,
2013-06-07 15:30:00,81.1,57.2,29.91,ESE,121,4.0,15.0,44,0.00,,,0.13,meteohub,2013-06-07 20:30:00,
2013-06-07 15:37:00,81.1,56.5,29.91,SE,132,4.0,12.0,43,0.00,,,0.13,meteohub,2013-06-07 20:37:00,
2013-06-07 15:42:00,81.3,56.7,29.91,SSE,158,9.0,12.0,43,0.00,,,0.13,meteohub,2013-06-07 20:42:00,
2013-06-07 15:47:00,81.1,55.9,29.91,East,84,0.0,15.0,42,0.00,,,0.13,meteohub,2013-06-07 20:47:00,
2013-06-07 15:52:00,81.3,56.1,29.90,SE,130,4.0,15.0,42,0.00,,,0.13,meteohub,2013-06-07 20:52:00,
2013-06-07 15:57:00,81.9,55.2,29.90,ESE,113,0.0,15.0,40,0.00,,,0.13,meteohub,2013-06-07 20:57:00,
2013-06-07 16:02:00,82.2,56.1,29.90,SSE,148,2.0,15.0,41,0.00,,,0.13,meteohub,2013-06-07 21:02:00,
2013-06-07 16:07:00,82.6,55.8,29.90,SE,126,1.0,13.0,40,0.00,,,0.13,meteohub,2013-06-07 21:07:00,
2013-06-07 16:12:00,82.2,55.6,29.90,SSE,167,0.0,13.0,40,0.00,,,0.13,meteohub,2013-06-07 21:12:00,
2013-06-07 16:17:00,82.0,55.4,29.90,SE,137,4.0,13.0,40,0.00,,,0.13,meteohub,2013-06-07 21:17:00,
2013-06-07 16:24:00,81.9,55.9,29.90,SSE,148,0.0,13.0,41,0.00,,,0.13,meteohub,2013-06-07 21:24:00,
2013-06-07 16:30:00,81.9,56.5,29.89,SSE,148,0.0,15.0,42,0.00,,,0.13,meteohub,2013-06-07 21:30:00,
2013-06-07 16:37:00,82.6,56.5,29.89,SSE,163,1.0,14.0,41,0.00,,,0.13,meteohub,2013-06-07 21:37:00,
2013-06-07 16:42:00,82.9,56.1,29.88,South,171,0.0,10.0,40,0.00,,,0.13,meteohub,2013-06-07 21:42:00,
2013-06-07 16:47:00,83.1,56.3,29.88,SE,138,6.0,13.0,40,0.00,,,0.13,meteohub,2013-06-07 21:47:00,
2013-06-07 16:52:00,83.3,55.8,29.88,SE,126,2.0,13.0,39,0.00,,,0.13,meteohub,2013-06-07 21:52:00,
2013-06-07 16:57:00,83.5,55.9,29.88,South,183,1.0,12.0,39,0.00,,,0.13,meteohub,2013-06-07 21:57:00,
2013-06-07 17:04:00,83.3,55.8,29.88,SE,140,4.0,12.0,39,0.00,,,0.13,meteohub,2013-06-07 22:04:00,
2013-06-07 17:10:00,83.5,55.9,29.87,SE,136,4.0,12.0,39,0.00,,,0.13,meteohub,2013-06-07 22:10:00,
2013-06-07 17:17:00,83.5,55.9,29.87,ESE,121,5.0,10.0,39,0.00,,,0.13,meteohub,2013-06-07 22:17:00,
2013-06-07 17:22:00,83.7,56.1,29.87,SE,134,6.0,11.0,39,0.00,,,0.13,meteohub,2013-06-07 22:22:00,
2013-06-07 17:27:00,83.7,56.1,29.87,South,180,0.0,11.0,39,0.00,,,0.13,meteohub,2013-06-07 22:27:00,
2013-06-07 17:32:00,83.7,56.8,29.86,SSE,165,12.0,12.0,40,0.00,,,0.13,meteohub,2013-06-07 22:32:00,
2013-06-07 17:37:00,83.5,56.7,29.86,SE,140,6.0,14.0,40,0.00,,,0.13,meteohub,2013-06-07 22:37:00,
2013-06-07 17:42:00,83.3,56.5,29.86,SSE,163,0.0,14.0,40,0.00,,,0.13,meteohub,2013-06-07 22:42:00,
2013-06-07 17:47:00,83.1,56.3,29.86,SE,143,0.0,14.0,40,0.00,,,0.13,meteohub,2013-06-07 22:47:00,
2013-06-07 17:52:00,83.1,55.6,29.85,South,169,5.0,13.0,39,0.00,,,0.13,meteohub,2013-06-07 22:52:00,
2013-06-07 17:57:00,82.9,56.1,29.85,SE,129,4.0,13.0,40,0.00,,,0.13,meteohub,2013-06-07 22:57:00,
2013-06-07 18:02:00,82.9,55.4,29.85,SE,126,6.0,11.0,39,0.00,,,0.13,meteohub,2013-06-07 23:02:00,
2013-06-07 18:07:00,82.8,55.9,29.84,SE,144,18.0,18.0,40,0.00,,,0.13,meteohub,2013-06-07 23:07:00,
2013-06-07 18:12:00,82.6,56.5,29.84,SE,138,7.0,18.0,41,0.00,,,0.13,meteohub,2013-06-07 23:12:00,
2013-06-07 18:18:00,82.6,55.0,29.84,SE,144,11.0,18.0,39,0.00,,,0.13,meteohub,2013-06-07 23:18:00,
2013-06-07 18:30:00,82.6,53.6,29.83,ESE,105,1.0,15.0,37,0.00,,,0.13,meteohub,2013-06-07 23:30:00,
2013-06-07 18:35:00,82.8,55.2,29.83,South,172,1.0,15.0,39,0.00,,,0.13,meteohub,2013-06-07 23:35:00,
2013-06-07 18:40:00,82.8,54.5,29.83,SSE,157,1.0,15.0,38,0.00,,,0.13,meteohub,2013-06-07 23:40:00,
2013-06-07 18:47:00,82.9,54.7,29.83,SSE,154,6.0,14.0,38,0.00,,,0.13,meteohub,2013-06-07 23:47:00,
2013-06-07 18:52:00,83.1,54.9,29.82,SE,141,0.0,14.0,38,0.00,,,0.13,meteohub,2013-06-07 23:52:00,
2013-06-07 19:03:00,83.1,54.9,29.82,SE,136,4.0,13.0,38,0.00,,,0.13,meteohub,2013-06-08 00:03:00,
2013-06-07 19:11:00,83.1,55.6,29.82,SE,129,0.0,12.0,39,0.00,,,0.13,meteohub,2013-06-08 00:11:00,
2013-06-07 19:17:00,82.8,54.5,29.82,SE,125,9.0,13.0,38,0.00,,,0.13,meteohub,2013-06-08 00:17:00,
2013-06-07 19:22:00,82.6,54.3,29.81,SE,130,6.0,15.0,38,0.00,,,0.13,meteohub,2013-06-08 00:22:00,
2013-06-07 19:27:00,82.6,53.6,29.81,ESE,115,7.0,15.0,37,0.00,,,0.13,meteohub,2013-06-08 00:27:00,
2013-06-07 19:33:00,82.8,53.8,29.81,East,94,1.0,15.0,37,0.00,,,0.13,meteohub,2013-06-08 00:33:00,
2013-06-07 19:40:00,82.8,53.8,29.81,ESE,109,1.0,12.0,37,0.00,,,0.13,meteohub,2013-06-08 00:40:00,
2013-06-07 19:47:00,82.6,52.9,29.81,SE,146,5.0,12.0,36,0.00,,,0.13,meteohub,2013-06-08 00:47:00,
2013-06-07 19:52:00,82.4,52.7,29.81,ESE,123,4.0,11.0,36,0.00,,,0.13,meteohub,2013-06-08 00:52:00,
2013-06-07 19:57:00,82.4,52.7,29.81,ESE,113,2.0,12.0,36,0.00,,,0.13,meteohub,2013-06-08 00:57:00,
2013-06-07 20:02:00,82.2,52.5,29.81,SSE,147,1.0,12.0,36,0.00,,,0.13,meteohub,2013-06-08 01:02:00,
2013-06-07 20:07:00,82.0,52.5,29.81,ESE,117,4.0,12.0,36,0.00,,,0.13,meteohub,2013-06-08 01:07:00,
2013-06-07 20:12:00,82.0,52.5,29.81,SE,126,5.0,12.0,36,0.00,,,0.13,meteohub,2013-06-08 01:12:00,
2013-06-07 20:17:00,81.9,52.3,29.81,SSE,163,0.0,9.0,36,0.00,,,0.13,meteohub,2013-06-08 01:17:00,
2013-06-07 20:22:00,81.7,52.2,29.81,ESE,115,1.0,9.0,36,0.00,,,0.13,meteohub,2013-06-08 01:22:00,
2013-06-07 20:27:00,81.3,52.5,29.82,ESE,116,0.0,7.0,37,0.00,,,0.13,meteohub,2013-06-08 01:27:00,
2013-06-07 20:32:00,81.0,52.2,29.82,SE,135,0.0,6.0,37,0.00,,,0.13,meteohub,2013-06-08 01:32:00,
2013-06-07 20:37:00,80.6,52.7,29.82,SE,134,0.0,5.0,38,0.00,,,0.13,meteohub,2013-06-08 01:37:00,
2013-06-07 20:43:00,80.2,52.3,29.82,SE,134,0.0,5.0,38,0.00,,,0.13,meteohub,2013-06-08 01:43:00,
2013-06-07 20:52:00,79.2,52.7,29.83,SE,134,0.0,0.0,40,0.00,,,0.13,meteohub,2013-06-08 01:52:00,
2013-06-07 20:58:00,79.0,52.5,29.83,SE,134,0.0,0.0,40,0.00,,,0.13,meteohub,2013-06-08 01:58:00,
2013-06-07 21:05:00,78.3,52.7,29.84,SE,134,0.0,0.0,41,0.00,,,0.13,meteohub,2013-06-08 02:05:00,
2013-06-07 21:11:00,77.7,52.9,29.84,SE,134,0.0,0.0,42,0.00,,,0.13,meteohub,2013-06-08 02:11:00,
2013-06-07 21:17:00,77.2,52.9,29.84,SE,134,0.0,0.0,43,0.00,,,0.13,meteohub,2013-06-08 02:17:00,
2013-06-07 21:22:00,76.8,53.2,29.85,SE,134,0.0,0.0,44,0.00,,,0.13,meteohub,2013-06-08 02:22:00,
2013-06-07 21:29:00,76.6,53.1,29.85,SE,134,0.0,0.0,44,0.00,,,0.13,meteohub,2013-06-08 02:29:00,
2013-06-07 21:37:00,76.1,53.8,29.85,SE,134,0.0,0.0,46,0.00,,,0.13,meteohub,2013-06-08 02:37:00,
2013-06-07 21:44:00,75.9,53.6,29.85,SE,134,0.0,0.0,46,0.00,,,0.13,meteohub,2013-06-08 02:44:00,
2013-06-07 21:50:00,75.6,53.2,29.84,SE,134,0.0,2.0,46,0.00,,,0.13,meteohub,2013-06-08 02:50:00,
2013-06-07 21:55:00,75.4,53.8,29.84,SE,134,0.0,2.0,47,0.00,,,0.13,meteohub,2013-06-08 02:55:00,
2013-06-07 22:02:00,75.0,53.4,29.84,SE,134,0.0,2.0,47,0.00,,,0.13,meteohub,2013-06-08 03:02:00,
2013-06-07 22:09:00,74.8,53.8,29.84,SSE,159,0.0,5.0,48,0.00,,,0.13,meteohub,2013-06-08 03:09:00,
2013-06-07 22:17:00,74.3,53.4,29.84,SSE,148,0.0,7.0,48,0.00,,,0.13,meteohub,2013-06-08 03:17:00,
2013-06-07 22:22:00,74.3,54.0,29.85,SE,136,2.0,7.0,49,0.00,,,0.13,meteohub,2013-06-08 03:22:00,
2013-06-07 22:27:00,74.1,53.8,29.84,East,87,3.0,7.0,49,0.00,,,0.13,meteohub,2013-06-08 03:27:00,
2013-06-07 22:33:00,73.9,54.1,29.85,ESE,123,1.0,7.0,50,0.00,,,0.13,meteohub,2013-06-08 03:33:00,
2013-06-07 22:41:00,73.9,54.1,29.85,SE,128,0.0,7.0,50,0.00,,,0.13,meteohub,2013-06-08 03:41:00,
2013-06-07 22:47:00,73.8,54.5,29.86,SE,126,0.0,2.0,51,0.00,,,0.13,meteohub,2013-06-08 03:47:00,
2013-06-07 22:52:00,73.6,54.9,29.86,SE,126,0.0,0.0,52,0.00,,,0.13,meteohub,2013-06-08 03:52:00,
2013-06-07 22:57:00,73.2,55.0,29.86,SE,126,0.0,0.0,53,0.00,,,0.13,meteohub,2013-06-08 03:57:00,
2013-06-07 23:01:00,73.0,54.9,29.86,SE,126,0.0,0.0,53,0.00,,,0.13,meteohub,2013-06-08 04:01:00,
2013-06-07 23:02:00,73.0,54.9,29.86,SE,126,0.0,0.0,53,0.00,,,0.13,meteohub,2013-06-08 04:02:00,
2013-06-07 23:07:00,72.9,54.7,29.86,SE,139,0.0,0.0,53,0.00,,,0.13,meteohub,2013-06-08 04:07:00,
2013-06-07 23:12:00,72.7,55.0,29.87,SE,139,0.0,4.0,54,0.00,,,0.13,meteohub,2013-06-08 04:12:00,
2013-06-07 23:17:00,72.5,54.9,29.87,SE,139,0.0,4.0,54,0.00,,,0.13,meteohub,2013-06-08 04:17:00,
2013-06-07 23:22:00,72.3,54.7,29.88,SE,139,0.0,1.0,54,0.00,,,0.13,meteohub,2013-06-08 04:22:00,
2013-06-07 23:27:00,72.3,55.2,29.89,SE,139,0.0,1.0,55,0.00,,,0.13,meteohub,2013-06-08 04:27:00,
2013-06-07 23:32:00,72.1,55.0,29.89,SE,139,0.0,0.0,55,0.00,,,0.13,meteohub,2013-06-08 04:32:00,
2013-06-07 23:37:00,72.0,54.9,29.88,SE,139,0.0,0.0,55,0.00,,,0.13,meteohub,2013-06-08 04:37:00,
2013-06-07 23:42:00,71.8,55.2,29.88,SE,139,0.0,0.0,56,0.00,,,0.13,meteohub,2013-06-08 04:42:00,
2013-06-07 23:47:00,71.4,55.4,29.88,SE,140,0.0,0.0,57,0.00,,,0.13,meteohub,2013-06-08 04:47:00,
2013-06-07 23:52:00,71.2,55.8,29.88,SE,144,0.0,0.0,58,0.00,,,0.13,meteohub,2013-06-08 04:52:00,
2013-06-07 23:57:00,71.2,55.8,29.88,SSE,152,0.0,4.0,58,0.00,,,0.13,meteohub,2013-06-08 04:57:00,